| time (UTC) | temp F | wind direction | speed MPH | gust MPH | rain 1hr in | rain 24hr in | rain mn in | humidity % | barometer mb |
| 20260505230004 | 48 | 253 | 0.0 | 7.0 | 0.00 | 0.38 | 0.37 | 84 | 1014.7 |
| 20260505224503 | 48 | 322 | 0.0 | 2.0 | 0.00 | 0.38 | 0.37 | 84 | 1014.8 |
| 20260505223002 | 49 | 254 | 0.0 | 11.0 | 0.00 | 0.38 | 0.37 | 87 | 1014.8 |
| 20260505221557 | 49 | 242 | 0.0 | 13.0 | 0.00 | 0.38 | 0.37 | 89 | 1014.8 |
| 20260505220053 | 49 | 336 | 3.0 | 10.0 | 0.00 | 0.38 | 0.37 | 93 | 1014.9 |
| 20260505214554 | 48 | 253 | 3.0 | 12.0 | 0.00 | 0.38 | 0.37 | 95 | 1015.1 |
| 20260505213047 | 47 | 315 | 4.0 | 15.0 | 0.00 | 0.38 | 0.37 | 95 | 1015.1 |
| 20260505211546 | 47 | 265 | 0.0 | 10.0 | 0.00 | 0.38 | 0.37 | 95 | 1015.2 |
| 20260505210044 | 47 | 295 | 4.0 | 12.0 | 0.00 | 0.38 | 0.37 | 96 | 1015.3 |
| 20260505204546 | 45 | 294 | 1.0 | 7.0 | 0.00 | 0.38 | 0.37 | 95 | 1015.2 |
| 20260505203042 | 46 | 264 | 0.0 | 11.0 | 0.00 | 0.38 | 0.37 | 96 | 1015.2 |
| 20260505201539 | 45 | 292 | 1.0 | 9.0 | 0.00 | 0.38 | 0.37 | 95 | 1015.3 |
| 20260505200044 | 45 | 305 | 0.0 | 10.0 | 0.00 | 0.38 | 0.37 | 95 | 1015.2 |
| 20260505194539 | 45 | 321 | 0.0 | 9.0 | 0.00 | 0.38 | 0.37 | 95 | 1015.2 |
| 20260505193037 | 44 | 296 | 2.0 | 10.0 | 0.00 | 0.38 | 0.37 | 95 | 1015.3 |
| 20260505191537 | 44 | 290 | 1.0 | 9.0 | 0.00 | 0.38 | 0.37 | 95 | 1015.5 |
| 20260505190039 | 43 | 302 | 1.0 | 10.0 | 0.00 | 0.38 | 0.37 | 95 | 1015.5 |
| 20260505184534 | 45 | 323 | 2.0 | 13.0 | 0.00 | 0.38 | 0.37 | 95 | 1015.2 |
| 20260505183038 | 45 | 310 | 2.0 | 12.0 | 0.01 | 0.38 | 0.37 | 95 | 1015.2 |
| 20260505181531 | 45 | 297 | 0.0 | 10.0 | 0.02 | 0.38 | 0.37 | 95 | 1015.2 |
| 20260505180032 | 44 | 302 | 1.0 | 14.0 | 0.02 | 0.38 | 0.37 | 95 | 1015.0 |
| 20260505174538 | 44 | 284 | 0.0 | 6.0 | 0.03 | 0.38 | 0.37 | 95 | 1014.9 |
| 20260505173028 | 44 | 291 | 1.0 | 7.0 | 0.02 | 0.37 | 0.36 | 95 | 1014.8 |
| 20260505171527 | 44 | 299 | 2.0 | 9.0 | 0.01 | 0.36 | 0.35 | 95 | 1014.7 |
| 20260505170025 | 44 | 317 | 1.0 | 10.0 | 0.01 | 0.36 | 0.35 | 95 | 1014.4 |
| 20260505164522 | 43 | 278 | 0.0 | 9.0 | 0.02 | 0.35 | 0.34 | 95 | 1014.4 |
| 20260505163020 | 43 | 238 | 1.0 | 6.0 | 0.04 | 0.35 | 0.34 | 95 | 1014.3 |
| 20260505161519 | 44 | 311 | 1.0 | 7.0 | 0.04 | 0.35 | 0.34 | 94 | 1014.1 |
| 20260505153018 | 43 | 311 | 2.0 | 9.0 | 0.00 | 0.31 | 0.30 | 94 | 1014.0 |
| 20260505151517 | 43 | 348 | 0.0 | 5.0 | 0.01 | 0.31 | 0.30 | 95 | 1013.9 |
| 20260505124502 | 44 | 280 | 2.0 | 7.0 | 0.07 | 0.21 | 0.20 | 94 | 1012.6 |
| 20260505123000 | 44 | 277 | 1.0 | 11.0 | 0.04 | 0.18 | 0.17 | 94 | 1012.4 |
| 20260505121600 | 44 | 323 | 2.0 | 13.0 | 0.03 | 0.16 | 0.15 | 93 | 1012.4 |
| 20260505120121 | 44 | 288 | 0.0 | 5.0 | 0.04 | 0.16 | 0.15 | 94 | 1012.3 |
| 20260505114601 | 44 | 288 | 1.0 | 6.0 | 0.03 | 0.14 | 0.13 | 93 | 1012.4 |
| 20260505113104 | 44 | 248 | 0.0 | 6.0 | 0.03 | 0.14 | 0.13 | 93 | 1012.6 |
| 20260505111546 | 44 | 202 | 1.0 | 14.0 | 0.03 | 0.13 | 0.12 | 93 | 1012.5 |
| 20260505101539 | 43 | 224 | 0.0 | 3.0 | 0.07 | 0.10 | 0.09 | 93 | 1012.8 |
| 20260505100036 | 42 | 315 | 0.0 | 4.0 | 0.06 | 0.08 | 0.07 | 92 | 1012.9 |
| 20260505094536 | 42 | 317 | 0.0 | 4.0 | 0.05 | 0.06 | 0.05 | 92 | 1013.0 |
| 20260505093033 | 42 | 229 | 0.0 | 1.0 | 0.03 | 0.04 | 0.03 | 92 | 1013.1 |
| 20260505091532 | 42 | 228 | 0.0 | 0.0 | 0.02 | 0.03 | 0.02 | 92 | 1013.1 |
| 20260505090036 | 42 | 227 | 0.0 | 3.0 | 0.01 | 0.02 | 0.01 | 91 | 1013.2 |
| 20260505084529 | 42 | 240 | 0.0 | 2.0 | 0.00 | 0.01 | 0.00 | 91 | 1013.2 |
| 20260505083027 | 43 | 261 | 0.0 | 3.0 | 0.00 | 0.01 | 0.00 | 92 | 1013.3 |
| 20260505081539 | 43 | 309 | 0.0 | 0.0 | 0.00 | 0.01 | 0.00 | 92 | 1013.7 |
| 20260505080024 | 43 | 309 | 0.0 | 1.0 | 0.00 | 0.01 | 0.00 | 92 | 1014.0 |
| 20260505074524 | 43 | 309 | 0.0 | 0.0 | 0.00 | 0.01 | 0.00 | 92 | 1014.0 |
| 20260505073027 | 43 | 310 | 0.0 | 6.0 | 0.00 | 0.01 | 0.00 | 91 | 1014.0 |
| 20260505071540 | 43 | 300 | 0.0 | 4.0 | 0.00 | 0.01 | 0.00 | 91 | 1014.1 |
| 20260505070019 | 43 | 315 | 0.0 | 3.0 | 0.00 | 0.01 | 0.00 | 91 | 1014.1 |
| 20260505064523 | 43 | 260 | 0.0 | 3.0 | 0.01 | 0.01 | 0.01 | 91 | 1014.1 |
| 20260505063018 | 43 | 258 | 0.0 | 5.0 | 0.01 | 0.01 | 0.01 | 91 | 1014.3 |
| 20260505061517 | 43 | 271 | 0.0 | 5.0 | 0.01 | 0.01 | 0.01 | 91 | 1014.3 |
| 20260505060017 | 43 | 297 | 0.0 | 7.0 | 0.01 | 0.01 | 0.01 | 91 | 1014.3 |
| 20260505054520 | 43 | 315 | 0.0 | 8.0 | 0.00 | 0.00 | 0.00 | 90 | 1014.5 |
| 20260505053023 | 43 | 306 | 1.0 | 6.0 | 0.00 | 0.00 | 0.00 | 90 | 1014.7 |
| 20260505051525 | 43 | 273 | 0.0 | 8.0 | 0.00 | 0.00 | 0.00 | 90 | 1014.9 |
| 20260505041515 | 45 | 270 | 0.0 | 5.0 | 0.00 | 0.00 | 0.00 | 88 | 1014.7 |
| 20260505040015 | 45 | 333 | 0.0 | 6.0 | 0.00 | 0.00 | 0.00 | 88 | 1014.7 |
| 20260505034511 | 45 | 316 | 1.0 | 11.0 | 0.00 | 0.00 | 0.00 | 87 | 1014.4 |
| 20260505033011 | 46 | 302 | 1.0 | 6.0 | 0.00 | 0.00 | 0.00 | 86 | 1014.3 |
| 20260505031508 | 46 | 262 | 0.0 | 10.0 | 0.00 | 0.00 | 0.00 | 85 | 1014.3 |
| 20260505030021 | 46 | 286 | 1.0 | 8.0 | 0.00 | 0.00 | 0.00 | 84 | 1014.1 |
| 20260505024508 | 47 | 296 | 0.0 | 11.0 | 0.00 | 0.00 | 0.00 | 83 | 1014.0 |
| 20260505023008 | 47 | 293 | 2.0 | 13.0 | 0.00 | 0.00 | 0.00 | 81 | 1013.9 |
| 20260505021508 | 48 | 325 | 4.0 | 11.0 | 0.00 | 0.00 | 0.00 | 81 | 1014.0 |
| 20260505020007 | 48 | 269 | 1.0 | 9.0 | 0.00 | 0.00 | 0.00 | 79 | 1014.0 |
| 20260505014507 | 49 | 252 | 0.0 | 3.0 | 0.00 | 0.00 | 0.00 | 76 | 1013.9 |
| 20260505013006 | 50 | 280 | 0.0 | 4.0 | 0.00 | 0.00 | 0.00 | 75 | 1014.1 |
| 20260505011509 | 51 | 328 | 0.0 | 4.0 | 0.00 | 0.00 | 0.00 | 72 | 1014.1 |
| 20260505010006 | 52 | 263 | 0.0 | 15.0 | 0.00 | 0.00 | 0.00 | 70 | 1014.2 |
| 20260505004506 | 52 | 298 | 0.0 | 11.0 | 0.00 | 0.00 | 0.00 | 68 | 1014.1 |
| 20260505003004 | 52 | 318 | 0.0 | 9.0 | 0.00 | 0.00 | 0.00 | 67 | 1014.2 |
| 20260505001503 | 52 | 278 | 0.0 | 13.0 | 0.00 | 0.00 | 0.00 | 67 | 1014.1 |
| 20260505000002 | 52 | 296 | 0.0 | 13.0 | 0.00 | 0.00 | 0.00 | 67 | 1014.3 |
| 20260504234502 | 52 | 341 | 0.0 | 11.0 | 0.00 | 0.00 | 0.00 | 66 | 1014.4 |
| 20260504233002 | 52 | 255 | 0.0 | 8.0 | 0.00 | 0.00 | 0.00 | 66 | 1014.3 |
| 20260504231501 | 53 | 267 | 0.0 | 12.0 | 0.00 | 0.00 | 0.00 | 65 | 1014.3 |